This demonstration page uses our WeatherBlox Daily Observations layout. Learn more.

Left ArrowRight Arrow

Hourly Observations for January 29, 2017

Temp ( °F °C ) Dew Point ( °F °C ) Humidity (%) Winds ( mph kmh ) Pressure ( in mb ) Visibility ( mi km ) Precip ( " mm )
12:58 am 00:58 Partly Cloudy 34 1.3 31 -0.4 89 89 NW 13 20 30.02 1017 10 16 0.00 0.00
1:58 am 01:58 Clear 33 0.3 31 -0.3 96 96 WNW 12 19 30.02 1017 10 16 0.00 0.00
2:58 am 02:58 Cloudy 34 1.2 33 0.4 94 94 NW 7 11 30.03 1017 10 16 0.00 0.00
3:58 am 03:58 Cloudy 35 1.4 33 0.6 94 94 NW 8 13 30.02 1017 10 16 0.00 0.00
4:58 am 04:58 Cloudy 35 1.7 33 0.4 91 91 NW 14 22 30.02 1017 10 16 0.00 0.00
5:58 am 05:58 Cloudy 35 1.8 33 0.8 93 93 WNW 9 15 30.02 1017 10 16 0.00 0.00
6:13 am 06:13 Cloudy 36 2 34 1 93 93 WNW 8 13 30.00 1016 10 16 0.00 0.00
6:25 am 06:25 Cloudy 36 2 34 1 93 93 WNW 7 11 30.00 1016 10 16 0.00 0.00
6:43 am 06:43 Cloudy 34 1 34 1 100 100 NW 6 9 30.06 1018 10 16 0.00 0.00
6:52 am 06:52 Cloudy 34 1 34 1 100 100 WNW 7 11 30.06 1018 10 16 0.00 0.00
6:55 am 06:55 Cloudy 34 1 34 1 100 100 WNW 7 11 30.06 1018 10 16 0.00 0.00
6:58 am 06:58 Cloudy 35 1.4 34 1.1 98 98 WNW 9 15 30.04 1017 10 16 0.00 0.00
7:07 am 07:07 Cloudy 34 1 34 1 100 100 WNW 7 11 30.06 1018 10 16 0.00 0.00
7:58 am 07:58 Cloudy 34 1.1 33 0.7 97 97 WNW 7 11 30.03 1017 10 16 0.00 0.00
8:58 am 08:58 Cloudy 34 1.2 34 0.9 98 98 W 7 11 30.05 1018 10 16 0.00 0.00
9:58 am 09:58 Cloudy 37 2.7 34 1.2 90 90 WNW 7 11 30.07 1018 10 16 0.00 0.00
10:11 am 10:11 Cloudy 37 3 34 1 87 87 WNW 7 11 30.06 1018 10 16 0.00 0.00
10:29 am 10:29 Cloudy 39 4 34 1 81 81 NW 9 15 30.06 1018 10 16 0.00 0.00
10:32 am 10:32 Cloudy 39 4 34 1 81 81 NW 8 13 30.06 1018 10 16 0.00 0.00
10:41 am 10:41 Mostly Cloudy 39 4 36 2 87 87 WNW 12 19 30.06 1018 10 16 0.00 0.00
10:58 am 10:58 Mostly Cloudy 41 4.8 35 1.6 80 80 NW 9 15 30.06 1018 10 16 0.00 0.00
11:58 am 11:58 Mostly Cloudy 43 6 36 2 76 76 WNW 13 20 30.05 1018 10 16 0.00 0.00
12:58 pm 12:58 Cloudy 42 5.5 36 2.3 80 80 NW 14 22 30.04 1017 10 16 0.00 0.00
1:58 pm 13:58 Cloudy 41 4.9 37 2.7 86 86 NW 8 13 30.05 1018 10 16 0.00 0.00
2:58 pm 14:58 Cloudy 42 5.3 38 3.2 86 86 WNW 12 19 30.06 1018 10 16 0.00 0.00
3:58 pm 15:58 Cloudy 42 5.5 38 3.2 85 85 NW 10 17 30.07 1018 10 16 0.00 0.00
4:34 pm 16:34 Cloudy 41 5 37 3 87 87 WNW 8 13 30.09 1019 10 16 0.00 0.00
4:43 pm 16:43 Cloudy 41 5 39 4 93 93 WNW 12 19 30.09 1019 10 16 0.00 0.00
4:49 pm 16:49 Cloudy 41 5 39 4 93 93 WNW 12 19 30.09 1019 10 16 0.00 0.00
4:58 pm 16:58 Cloudy 40 4.7 38 3.6 93 93 WNW 12 19 30.09 1019 10 16 0.00 0.00
5:19 pm 17:19 Cloudy 41 5 37 3 87 87 NNW 12 19 30.09 1019 10 16 0.00 0.00
5:58 pm 17:58 Cloudy 40 4.4 38 3.1 91 91 WNW 7 11 30.09 1019 10 16 0.00 0.00
6:58 pm 18:58 Cloudy 39 3.9 37 3 94 94 NW 3 6 30.10 1019 10 16 0.00 0.00
7:58 pm 19:58 Cloudy 39 4 38 3.1 94 94 WNW 6 9 30.09 1019 10 16 0.00 0.00
8:58 pm 20:58 Cloudy 37 2.9 37 2.8 99 99 NW 3 6 30.09 1019 10 16 0.00 0.00
9:58 pm 21:58 Mostly Clear 35 1.4 34 1.2 99 99 Calm 30.07 1018 10 16 0.00 0.00
10:58 pm 22:58 Mostly Clear 29 -1.5 29 -1.5 100 100 Calm 30.05 1018 10 16 0.00 0.00
11:58 pm 23:58 Clear 29 -1.9 29 -1.9 100 100 Calm 30.04 1017 10 16 0.00 0.00

Powered by AerisWeather